Location: Augustenthal
(51.7167°N, 10.2833°E)
Time: 14:17:18
(UTC+00:00)

Cosmos 1455 Rocket - Pass Details

Date: 01 October 2021
Orbit: 606 x 628 km, 82.5° (Epoch: 21 October)

Event Time Altitude Azimuth Distance (km) Brightness Sun altitude
Exits shadow 20:38:43 18° 359° (N) 1,514 5.4 -32.6°
Drops below altitude 10° 20:39:58 10° 4° (N) 1,992 6.1 -32.8°
Sets 20:42:15 0° 8° (N) 2,906 7.0 -33.0°
